User: anonymous   Login
Location: Bear Valley Community Church - Hurst
(32.8460°N, 97.1828°W)
Time: 10:32:55
(UTC+00:00)
Language:

SJ 16-02 - Orbit

View from above orbital plane
View from above orbital plane
View from above satellite
View from above satellite

Ground track
Ground track

The orbit data is extracted from the following two-line orbital elements,

1 41634U 16043A   22140.82907621  .00001481  00000-0  17188-3 0  9998
2 41634  75.0039 199.1750 0006938  39.0620 321.1071 14.86138149319555
Epoch (UTC): 20 May 2022 19:53:52
Eccentricity: 0.0006938
inclination: 75.0039°
perigee height: 605 km
apogee height: 615 km
right ascension of ascending node: 199.1750°
argument of perigee: 39.0620°
revolutions per day: 14.86138149
mean anomaly at epoch: 321.1071°
orbit number at epoch: 31955

The dashed part of the orbit path shows where the satellite is in the earth's shadow,  

DLR